Location: Molveno
(46.1500°N, 10.9667°E)
Time: 07:01:57
(UTC+00:00)

Cosmos 1110 Rocket - Pass Details

Date: 05 July 2020
Orbit: 752 x 782 km, 74.0° (Epoch: 05 August)

Event Time Altitude Azimuth Distance (km) Brightness Sun altitude
Rises 23:30:00 0° 341° (NNW) 3,251 8.5 -21.2°
Reaches altitude 10° 23:32:26 10° 346° (NNW) 2,325 7.5 -21.1°
Maximum altitude 23:37:38 56° 64° (ENE) 918 4.5 -21.1°
Enters shadow 23:40:15 28° 131° (SE) 1,414 5.0 -21.0°
